Regional Weather Roundup
Issued by NWS Little Rock, AR

Home | Current Version | Previous Version | Graphics & Text | Print | Product List | Glossary On
Versions: 1 2 3 4 5 6 7 8 9 10 11 12 13 14 15 16 17 18 19 20 21 22 23 24 25 26 27 28 29 30 31 32 33 34 35 36 37 38 39 40 41 42 43 44 45 46 47 48 49 50
383
ASUS44 KLZK 291805
RWRLZK

WEATHER ROUNDUP FOR ARKANSAS
NATIONAL WEATHER SERVICE LITTLE ROCK AR
100 PM CDT FRI JUL 29 2016

NOTE: "FAIR" INDICATES FEW OR NO CLOUDS BELOW 12,000 FEET WITH NO
SIGNIFICANT WEATHER AND/OR OBSTRUCTIONS TO VISIBILITY.

ARZ001-003-010-029-291900-
NORTHWEST ARKANSAS

CITY           SKY/WX    TMP DP  RH WIND       PRES   REMARKS
FAYETTEVILLE   CLOUDY    77  72  84 W9G18     30.01F
6HR MIN TEMP:  73; 6HR MAX TEMP:  82; 6HR PCP: TRACE;

FORT SMITH     TSTM      73  68  84 W6        29.99F
6HR MIN TEMP:  73; 6HR MAX TEMP:  88; 6HR PCP: TRACE;

HARRISON       PTSUNNY   84  73  69 NW15G31   29.98F HX  90
6HR MIN TEMP:  71; 6HR MAX TEMP:  88;

BENTONVILLE    CLOUDY    79  68  69 W15G21    30.02F
6HR MIN TEMP:  73; 6HR MAX TEMP:  81;

ROGERS           N/A     79  71  76 W16G23    30.02F
SILOAM SPGS    CLOUDY    77  63  61 W10       30.03F
6HR MIN TEMP:  72; 6HR MAX TEMP:  81;

HIGHFILL       CLOUDY    79  72  79 W12       30.01F
6HR MIN TEMP:  75; 6HR MAX TEMP:  81;

SPRINGDALE     PTSUNNY   79  70  73 W10G22    30.03F
$$

ARZ004-005-016-291900-
NORTH CENTRAL ARKANSAS

CITY           SKY/WX    TMP DP  RH WIND       PRES   REMARKS
BATESVILLE     CLOUDY    88  79  74 N7        29.95F HX 102
6HR MIN TEMP:  75; 6HR MAX TEMP:  90;

FLIPPIN        PTSUNNY   88  73  62 E3        29.93F HX  96
6HR MIN TEMP:  72; 6HR MAX TEMP:  88;

MTN HOME       MOSUNNY   88  74  63 VRB3      29.95F HX  96
6HR MIN TEMP:  70; 6HR MAX TEMP:  88;

$$

ARZ040-041-291900-
WEST CENTRAL ARKANSAS

CITY           SKY/WX    TMP DP  RH WIND       PRES   REMARKS
MENA             N/A    N/A N/A N/A MISG        N/A
MOUNT IDA      CLOUDY    90  74  59 VRB6      29.97F HX  99
6HR MIN TEMP:  75; 6HR MAX TEMP:  90;

$$

ARZ009-017-025-026-028-291900-
NORTHEAST ARKANSAS

CITY           SKY/WX    TMP DP  RH WIND       PRES   REMARKS
CORNING          N/A     86  77  74 SW6       29.96S HX  97
JONESBORO      CLOUDY    80  75  84 VRB5      29.96F HX  85
6HR MIN TEMP:  76; 6HR MAX TEMP:  80; 6HR PCP: TRACE;

NEWPORT        CLOUDY    85  77  77 S8        29.97F HX  95
6HR MIN TEMP:  76; 6HR MAX TEMP:  87; 6HR PCP:  0.03;

WALNUT RIDGE   PTSUNNY   84  75  74 S7        29.94S HX  92
6HR MIN TEMP:  73; 6HR MAX TEMP:  86;

BLYTHEVILLE    CLOUDY    78  75  90 S9        29.98F
6HR MIN TEMP:  76; 6HR MAX TEMP:  79; 6HR PCP: TRACE;

NW BLYTHEVILLE PTSUNNY   82  75  78 SW10      29.96F HX  89
$$

ARZ022-023-033-042-044-291900-
CENTRAL ARKANSAS

CITY           SKY/WX    TMP DP  RH WIND       PRES   REMARKS
LITTLE ROCK    MOSUNNY   91  74  57 SW8       29.96F HX 100
6HR MIN TEMP:  76; 6HR MAX TEMP:  91;

N LITTLE ROCK    N/A     87  77  71 W5        29.93F HX  98
6HR MIN TEMP:  73; 6HR MAX TEMP:  87;

JACKSONVILLE   SUNNY     91  76  60 W9        29.95F HX 102
6HR MIN TEMP:  75; 6HR MAX TEMP:  91;

SEARCY         PTSUNNY   90  80  72 VRB5      29.96F HX 107
6HR MIN TEMP:  74; 6HR MAX TEMP:  90;

HOT SPRINGS    SUNNY     91  74  57 W9        29.98F HX 100
6HR MIN TEMP:  74; 6HR MAX TEMP:  91;

RUSSELLVILLE   CLOUDY    88  73  61 SW8       29.93F HX  95
6HR MIN TEMP:  76; 6HR MAX TEMP:  90;

$$

ARZ036-291900-
EAST ARKANSAS

CITY           SKY/WX    TMP DP  RH WIND       PRES   REMARKS
WEST MEMPHIS   CLOUDY    81  75  82 VRB6      29.97F HX  87
6HR MIN TEMP:  74; 6HR MAX TEMP:  81;

$$

ARZ050-053-066-070-073-291900-
SOUTHWEST ARKANSAS

CITY           SKY/WX    TMP DP  RH WIND       PRES   REMARKS
ARKADELPHIA    MOCLDY    89  76  65 SW8       29.99F HX 100
6HR MIN TEMP:  74; 6HR MAX TEMP:  89;

CAMDEN         MOSUNNY   90  73  58 SW9       30.00F HX  98
TEXARKANA      MOSUNNY   90  74  59 S8        30.01F HX  99
6HR MIN TEMP:  72; 6HR MAX TEMP:  90;

EL DORADO      MOSUNNY   88  76  67 SW9       30.03S HX  99
6HR MIN TEMP:  72; 6HR MAX TEMP:  88;

DE QUEEN       CLOUDY    88  77  69 MISG      29.97F HX 100
6HR MIN TEMP:  74; 6HR MAX TEMP:  88;

$$

ARZ056-057-069-291900-
SOUTHEAST ARKANSAS

CITY           SKY/WX    TMP DP  RH WIND       PRES   REMARKS
PINE BLUFF     MOSUNNY   88  75  65 SW10      29.99F HX  97
6HR MIN TEMP:  73; 6HR MAX TEMP:  88;

STUTTGART      MOSUNNY   90  73  58 SW7       29.98F HX  98
6HR MIN TEMP:  73; 6HR MAX TEMP:  90;

MONTICELLO     MOSUNNY   88  75  65 SW12      30.01S HX  97
6HR MIN TEMP:  74; 6HR MAX TEMP:  88;


$$






USA.gov is the U.S. government's official web portal to all federal, state and local government web resources and services.